sat.trackr.live / text

‹ back to catalog

HYPERVIEW 1G (RS66S)

NORAD 61772 · 2024-199AP

PAYLOAD ACTIVE UNKNOWN

§ Identity

Operator
Country
CIS
Launch date
2024-11-04
Launch site
VOSTO
Launch vehicle
Mass (kg)
RCS (m²)

Purposes: comms

External: N2YO · Heavens-Above · Gunter

§ Orbital elements

Epoch: 2026-05-25T02:16:57.529056Z

Period
91.73 min
Inclination
97.2930°
Eccentricity
0.0004830
Mean motion
15.69877032 rev/d
Perigee alt
356.0 km
Apogee alt
362.5 km
Semi-major
6,737.4 km
B*
8.2719e-4
RAAN
23.7469°
Arg perigee
25.2006°
Mean anomaly
334.9491°
Rev number
13,104

§ Raw data

HYPERVIEW 1G (RS66S)1 61772U 24199AP  26145.09511029  .00099686  00000+0  82719-3 0  99902 61772  97.2930  23.7469 0004830  25.2006 334.9491 15.69877032131046

JSON: /api/v1/satellites/61772 · /tle

For live sub-satellite position, see the globe view (requires WebGL).

§ Visibility from observer

Set your observer location to see the next 7 days of passes ≥ 10°. The values pass through the URL so the page stays shareable.

No JS? Fill the form by hand. The geolocation button needs JavaScript.

§ Radio — SatNOGS DB

ModeDescriptionDownlinkUplink
GMSK USP Mode U - GMSK2k4 USP 436.540 MHz
GMSK USP Mode U - GMSK2k4 USP 436.600 MHz
DVB-S2 Mode X - DVB-S2 10.465 GHz

3 transmitters · refreshed weekly from db.satnogs.org